Regional Weather Roundup
Issued by NWS

Home | Current Version | Previous Version | Text Only | Print | Product List | Glossary Off
Versions: 1 2 3 4 5 6 7 8 9 10 11 12 13 14 15 16 17 18 19 20 21 22 23 24 25 26 27 28 29 30 31 32 33 34 35 36 37 38 39 40 41 42 43 44 45 46 47 48 49 50

502
ASUS45 KBOI 260310
RWRID

IDAHO REGIONAL WEATHER ROUNDUP
NATIONAL WEATHER SERVICE BOISE ID
800 PM MST SAT FEB 25 2017

NOTE: "FAIR" INDICATES FEW OR NO CLOUDS BELOW 12000 FEET
WITH NO SIGNIFICANT WEATHER AND/OR OBSTRUCTIONS TO VISIBILITY

IDZ012-014-260400-
SOUTHWEST IDAHO


CITY           SKY/WX    TMP DP  RH WIND       PRES   REMARKS
BOISE          MOCLDY    31  18  58 E7        30.00S WCI  24
CALDWELL       PTCLDY    33  18  53 E5        30.01S WCI  29
MOUNTAIN HOME  CLEAR     32  17  54 W5        30.00S WCI  27
$$

IDZ016-017-260400-
SOUTHCENTRAL IDAHO


CITY           SKY/WX    TMP DP  RH WIND       PRES   REMARKS
BURLEY         CLEAR     24  13  62 SW7       29.97R WCI  16
JEROME           N/A    N/A N/A N/A MISG      29.98S
TWIN FALLS     CLEAR     18   9  68 S12       29.98F WCI   5
$$

IDZ019>023-260400-
SOUTHEAST IDAHO


CITY           SKY/WX    TMP DP  RH WIND       PRES   REMARKS
IDAHO FALLS    CLEAR     18  12  77 S14       29.92F WCI   4
POCATELLO      CLEAR     19  10  68 S12       29.96F WCI   7
REXBURG        PTCLDY    15  10  80 S9        29.90F WCI   3
$$

IDZ006-010-011-018-031-032-260400-
CENTRAL IDAHO MOUNTAINS


CITY           SKY/WX    TMP DP  RH WIND       PRES   REMARKS
MCCALL         CLOUDY    21   9  59 SE6       29.87F WCI  13
HAILEY         CLEAR     14  10  85 NW7       29.91S WCI   4
STANLEY          N/A     13   8  81 N3        29.86S
SALMON         CLOUDY    27  14  59 W3        29.87F
CHALLIS        MOCLDY    23   6  48 SW8       29.86S WCI  14
$$

IDZ002-004-006-007-026-260400-
NORTHERN IDAHO


CITY           SKY/WX    TMP DP  RH WIND       PRES   REMARKS
LEWISTON       CLOUDY    34  25  69 N3        29.96F
LOWELL           N/A     31  27  85 CALM      30.01F
COEUR D`ALENE  CLOUDY    31  25  78 S9        29.89F WCI  23
MULLAN PASS    LGT SNOW  14  12  92 VRB7      29.72F FOG     WCI   4
$$




USA.gov is the U.S. government's official web portal to all federal, state and local government web resources and services.